Regional Weather Roundup
Issued by NWS

Home | Current Version | Previous Version | Graphics & Text | Print | Product List | Glossary On
Versions: 1 2 3 4 5 6 7 8 9 10 11 12 13 14 15 16 17 18 19 20 21 22 23 24 25 26 27 28 29 30 31 32 33 34 35 36 37 38 39 40 41 42 43 44 45 46 47 48 49 50
000
ASUS43 KBIS 160620
RWRND

NORTH DAKOTA REGIONAL WEATHER ROUNDUP
NATIONAL WEATHER SERVICE BISMARCK ND
100 AM CDT TUE SEP 16 2014

NOTE: "FAIR" INDICATES FEW OR NO CLOUDS BELOW 12,000 FEET WITH NO
SIGNIFICANT WEATHER AND/OR OBSTRUCTIONS TO VISIBILITY.


NDZ001>003-009>011-017-160700-
NORTHWEST NORTH DAKOTA

CITY           SKY/WX    TMP DP  RH WIND       PRES   REMARKS
WILLISTON      CLEAR     37  32  82 CALM      30.05F
6HR MIN TEMP:  37; 6HR MAX TEMP:  67;

MINOT          CLEAR     51  39  63 SW7       30.05F
MINOT AFB      CLEAR     46  39  77 SW7       30.05S
$$

NDZ018>021-031>035-040>046-160700-
SOUTHWEST NORTH DAKOTA

CITY           SKY/WX    TMP DP  RH WIND       PRES   REMARKS
BISMARCK       CLEAR     44  38  79 SE5       30.11F
6HR MIN TEMP:  42; 6HR MAX TEMP:  66;

DICKINSON      CLEAR     47  39  74 S12       30.06F
GARRISON         N/A     47  41  80 CALM      30.08S
6HR MIN TEMP:  44; 6HR MAX TEMP:  64;

HETTINGER ARPT CLEAR     46  38  73 SE6       30.10F
$$

NDZ004>008-012>016-024-026-027-054-160700-
NORTHEAST NORTH DAKOTA

CITY           SKY/WX    TMP DP  RH WIND       PRES   REMARKS
GRAND FORKS    CLEAR     49  40  71 SW7       30.06F
GRND FRKS AFB  CLEAR     46  41  84 SW7       30.07F
DEVILS LAKE    CLEAR     55  39  54 SW13      30.06S
$$

NDZ022-023-025-028>030-036>039-047>053-160700-
SOUTHEAST NORTH DAKOTA

CITY           SKY/WX    TMP DP  RH WIND       PRES   REMARKS
FARGO          CLEAR     52  38  58 SW12      30.12F
6HR MIN TEMP:  51; 6HR MAX TEMP:  61;

JAMESTOWN      CLEAR     44  37  76 S6        30.12F
$$




USA.gov is the U.S. government's official web portal to all federal, state and local government web resources and services.